Regional Weather Roundup
Issued by NWS Newport/Morehead, NC

Home | Current Version | Previous Version | Text Only | Print | Product List | Glossary On
Versions: 1 2 3 4 5 6 7 8 9 10 11 12 13 14 15 16 17 18 19 20 21 22 23 24 25 26 27 28 29 30 31 32 33 34 35 36 37 38 39 40 41 42 43 44 45 46 47 48 49 50
000
ASUS42 KMHX 240910
RWRMHX
WEATHER ROUNDUP FOR EASTERN NORTH CAROLINA
NATIONAL WEATHER SERVICE NEWPORT/MOREHEAD CITY NC
500 AM EDT THU APR 24 2014

NOTE: "FAIR" INDICATES FEW OR NO CLOUDS BELOW 12,000 FEET
WITH NO SIGNIFICANT WEATHER AND/OR OBSTRUCTIONS TO VISIBILITY

NCZ015>017-031-032-045>047-102-103-241000-
NORTH COAST

CITY           SKY/WX    TMP DP  RH WIND       PRES   REMARKS
EDENTON        CLEAR     44  37  78 CALM      30.05R
ELIZABETH CITY CLEAR     43  34  70 NW6       30.04R
KITTY HAWK     SUNNY     48  37  65 N7        30.01S
MANTEO         CLEAR     49  37  62 NE14      30.03S

$$

NCZ045>047-081-094-103-104-241000-
CENTRAL COAST

CITY           SKY/WX    TMP DP  RH WIND       PRES   REMARKS
FRISCO         CLEAR     52  39  61 NE13G24   30.02R
SWANQUARTER      N/A     46 N/A N/A CALM      30.00S

$$

NCZ095-097-098-100-101-241000-
SOUTHERN COAST

CITY           SKY/WX    TMP DP  RH WIND       PRES   REMARKS
BEAUFORT       CLEAR     51  46  83 NE5       30.01R
CEDAR ISLAND     N/A     57 N/A N/A N20       30.06R
JACKSONVILLE   CLEAR     48  43  82 N6        30.02R
NEWPORT          N/A     50  48  93 N3          N/A
PINEY ISLAND   SUNNY     57  44  62 N8        30.01R
WILMINGTON     CLEAR     50  40  68 NE8       30.01R


$$

NCZ011>013-027>030-043-044-078>080-089-090>093-098-241000-
COASTAL PLAIN

CITY           SKY/WX    TMP DP  RH WIND       PRES   REMARKS
AHOSKIE        CLEAR     42  34  73 CALM      30.06R
CLINTON        CLEAR     49  39  68 NE3       30.04R
ELIZABETHTOWN  CLEAR     48  39  69 CALM      30.03R
GOLDSBORO      CLEAR     49  37  63 NE3       30.03R
GREENVILLE     CLEAR     41  39  93 NE5       30.07R
HAVELOCK       CLEAR     54  40  59 NE14      30.03R
KENANSVILLE    CLEAR     44  38  78 CALM      30.05R
KINSTON        CLEAR     43  38  84 CALM      30.05R
NEW BERN       CLEAR     51  41  68 N10       30.04R
RICHLANDS      CLEAR     48  46  93 N7        30.04R
ROANOKE RAPIDS NOT AVBL
ROCKY MOUNT    CLEAR     41  36  82 CALM      30.05R
WASHINGTON     CLEAR     46  39  76 NE6       30.05R
WHITEVILLE     CLEAR     53  38  57 N5        30.00S

$$

AMZ130-135-150-152-154-156-158-170-250-252-270-ANZ085-086-088-633-658-670-241000-
MARINE OBSERVATIONS

STATION/POSITION TIME  TEMP    WIND        PRES    WAVE   SWELL
                       AIR SEA DIR/SP/G            HT/PER HT/PER
                 (UTC) (F)     (DEG/KT/KT) (MB)    (FT/S) (FT/S)
CHESAPEAKE LIGHT 0800   50     350/ 18/ 19 1016.7
BUOY 44014       0900   49 48  340/ 17/ 23 1015.4    6/ 6
DUCK             0900   50 51   10/ 14/ 17 1015.3
2E DUCK          0900      51                N/A     4/ 5   2/14
OREGON INLET     0900   49 56  360/ 10/ 15 1016.6
BUOY 44095       0900      50                N/A     6/ 6   2/14
HATTERAS CG      0900   55 61   20/ 19/ 24 1016.4
DIAMOND BUOY     0900   57 75  360/ 25/ 29 1015.1    5/ 8   2/14
CAPE LOOKOUT     0800   58      20/ 10/ 10 1015.5
BEAUFORT LAB     0900   52 62   30/  5/  6 1015.5
30 SE NEW RIVER  0900   64 69   30/ 17/ 21 1015.5    3/ 9   2/ 9
5 SE WRIGHTSVILL 0800   60 62   30/ 14/ 16 1015.1
FRYING PAN BUOY  0900   68 68   50/  8/  8 1014.4    3/ 8   2/ 8
BUOY 41001       NOT AVBL
BUOY 41002       NOT AVBL
BUOY 41004       0900   70 70   70/ 14/ 17 1013.3    2/ 8   2/ 8

$$



USA.gov is the U.S. government's official web portal to all federal, state and local government web resources and services.